Year,Month,Day,Hour,Minute,Value (Times are PST for temperature in C)
2008,09,23,00,00,9.30
2008,09,23,00,01,9.30
2008,09,23,00,02,9.30
2008,09,23,00,03,9.40
2008,09,23,00,04,9.40
2008,09,23,00,05,9.40
2008,09,23,00,06,9.40
2008,09,23,00,07,9.40
2008,09,23,00,08,9.40
2008,09,23,00,09,9.40
2008,09,23,00,10,9.50
2008,09,23,00,11,9.50
2008,09,23,00,12,9.50
2008,09,23,00,13,9.50
2008,09,23,00,14,9.50
2008,09,23,00,15,9.50
2008,09,23,00,16,9.50
2008,09,23,00,17,9.50
2008,09,23,00,18,9.50
2008,09,23,00,19,9.40
2008,09,23,00,20,9.40
2008,09,23,00,21,9.40
2008,09,23,00,22,9.40
2008,09,23,00,23,9.40
2008,09,23,00,24,9.40
2008,09,23,00,25,9.40
2008,09,23,00,26,9.40
2008,09,23,00,27,9.40
2008,09,23,00,28,9.30
2008,09,23,00,29,9.30
2008,09,23,00,30,9.30
2008,09,23,00,31,9.30
2008,09,23,00,32,9.30
2008,09,23,00,33,9.30
2008,09,23,00,34,9.30
2008,09,23,00,35,9.20
2008,09,23,00,36,9.20
2008,09,23,00,37,9.20
2008,09,23,00,38,9.20
2008,09,23,00,39,9.20
2008,09,23,00,40,9.20
2008,09,23,00,41,9.20
2008,09,23,00,42,9.10
2008,09,23,00,43,9.10
2008,09,23,00,44,9.10
2008,09,23,00,45,9.00
2008,09,23,00,46,9.00
2008,09,23,00,47,8.90
2008,09,23,00,48,8.90
2008,09,23,00,49,8.90
2008,09,23,00,50,8.80
2008,09,23,00,51,8.80
2008,09,23,00,52,8.70
2008,09,23,00,53,8.70
2008,09,23,00,54,8.70
2008,09,23,00,55,8.70
2008,09,23,00,56,8.60
2008,09,23,00,57,8.60
2008,09,23,00,58,8.50
2008,09,23,00,59,8.50
2008,09,23,01,00,8.50
2008,09,23,01,01,8.40
2008,09,23,01,02,8.40
2008,09,23,01,03,8.30
2008,09,23,01,04,8.30
2008,09,23,01,05,8.30
2008,09,23,01,06,8.20
2008,09,23,01,07,8.20
2008,09,23,01,08,8.20
2008,09,23,01,09,8.20
2008,09,23,01,10,8.20
2008,09,23,01,11,8.10
2008,09,23,01,12,8.10
2008,09,23,01,13,8.10
2008,09,23,01,14,8.00
2008,09,23,01,15,7.90
2008,09,23,01,16,7.90
2008,09,23,01,17,7.80
2008,09,23,01,18,7.80
2008,09,23,01,19,7.80
2008,09,23,01,20,7.70
2008,09,23,01,21,7.60
2008,09,23,01,22,7.50
2008,09,23,01,23,7.50
2008,09,23,01,24,7.40
2008,09,23,01,25,7.30
2008,09,23,01,26,7.30
2008,09,23,01,27,7.20
2008,09,23,01,28,7.20
2008,09,23,01,29,7.10
2008,09,23,01,30,7.10
2008,09,23,01,31,7.00
2008,09,23,01,32,7.00
2008,09,23,01,33,6.90
2008,09,23,01,34,6.90
2008,09,23,01,35,6.90
2008,09,23,01,36,6.80
2008,09,23,01,37,6.80
2008,09,23,01,38,6.80
2008,09,23,01,39,6.80
2008,09,23,01,40,6.80
2008,09,23,01,41,6.70
2008,09,23,01,42,6.70
2008,09,23,01,43,6.60
2008,09,23,01,44,6.60
2008,09,23,01,45,6.60
2008,09,23,01,46,6.50
2008,09,23,01,47,6.40
2008,09,23,01,48,6.40
2008,09,23,01,49,6.40
2008,09,23,01,50,6.40
2008,09,23,01,51,6.40
2008,09,23,01,52,6.30
2008,09,23,01,53,6.30
2008,09,23,01,54,6.30
2008,09,23,01,55,6.30
2008,09,23,01,56,6.30
2008,09,23,01,57,6.20
2008,09,23,01,58,6.20
2008,09,23,01,59,6.20
2008,09,23,02,00,6.20
2008,09,23,02,01,6.20
2008,09,23,02,02,6.10
2008,09,23,02,03,6.10
2008,09,23,02,04,6.10
2008,09,23,02,05,6.00
2008,09,23,02,06,6.00
2008,09,23,02,07,6.00
2008,09,23,02,08,6.00
2008,09,23,02,09,5.90
2008,09,23,02,10,5.90
2008,09,23,02,11,5.90
2008,09,23,02,12,5.80
2008,09,23,02,13,5.80
2008,09,23,02,14,5.70
2008,09,23,02,15,5.70
2008,09,23,02,16,5.70
2008,09,23,02,17,5.70
2008,09,23,02,18,5.70
2008,09,23,02,19,5.60
2008,09,23,02,20,5.60
2008,09,23,02,21,5.60
2008,09,23,02,22,5.50
2008,09,23,02,23,5.50
2008,09,23,02,24,5.50
2008,09,23,02,25,5.40
2008,09,23,02,26,5.40
2008,09,23,02,27,5.40
2008,09,23,02,28,5.40
2008,09,23,02,29,5.40
2008,09,23,02,30,5.30
2008,09,23,02,31,5.30
2008,09,23,02,32,5.30
2008,09,23,02,33,5.30
2008,09,23,02,34,5.30
2008,09,23,02,35,5.30
2008,09,23,02,36,5.30
2008,09,23,02,37,5.30
2008,09,23,02,38,5.20
2008,09,23,02,39,5.20
2008,09,23,02,40,5.20
2008,09,23,02,41,5.10
2008,09,23,02,42,5.10
2008,09,23,02,43,5.10
2008,09,23,02,44,5.10
2008,09,23,02,45,5.10
2008,09,23,02,46,5.10
2008,09,23,02,47,5.10
2008,09,23,02,48,5.00
2008,09,23,02,49,4.90
2008,09,23,02,50,4.90
2008,09,23,02,51,4.90
2008,09,23,02,52,4.80
2008,09,23,02,53,4.80
2008,09,23,02,54,4.70
2008,09,23,02,55,4.70
2008,09,23,02,56,4.60
2008,09,23,02,57,4.60
2008,09,23,02,58,4.60
2008,09,23,02,59,4.60
2008,09,23,03,00,4.60
2008,09,23,03,01,4.50
2008,09,23,03,02,4.50
2008,09,23,03,03,4.50
2008,09,23,03,04,4.50
2008,09,23,03,05,4.50
2008,09,23,03,06,4.50
2008,09,23,03,07,4.50
2008,09,23,03,08,4.50
2008,09,23,03,09,4.50
2008,09,23,03,10,4.40
2008,09,23,03,11,4.40
2008,09,23,03,12,4.40
2008,09,23,03,13,4.40
2008,09,23,03,14,4.40
2008,09,23,03,15,4.30
2008,09,23,03,16,4.30
2008,09,23,03,17,4.30
2008,09,23,03,18,4.30
2008,09,23,03,19,4.20
2008,09,23,03,20,4.20
2008,09,23,03,21,4.20
2008,09,23,03,22,4.20
2008,09,23,03,23,4.20
2008,09,23,03,24,4.20
2008,09,23,03,25,4.20
2008,09,23,03,26,4.20
2008,09,23,03,27,4.20
2008,09,23,03,28,4.20
2008,09,23,03,29,4.20
2008,09,23,03,30,4.20
2008,09,23,03,31,4.20
2008,09,23,03,32,4.20
2008,09,23,03,33,4.20
2008,09,23,03,34,4.20
2008,09,23,03,35,4.20
2008,09,23,03,36,4.10
2008,09,23,03,37,4.10
2008,09,23,03,38,4.10
2008,09,23,03,39,4.10
2008,09,23,03,40,4.00
2008,09,23,03,41,4.00
2008,09,23,03,42,4.00
2008,09,23,03,43,4.00
2008,09,23,03,44,4.00
2008,09,23,03,45,4.00
2008,09,23,03,46,4.00
2008,09,23,03,47,4.00
2008,09,23,03,48,4.00
2008,09,23,03,49,3.90
2008,09,23,03,50,3.90
2008,09,23,03,51,3.90
2008,09,23,03,52,3.90
2008,09,23,03,53,3.90
2008,09,23,03,54,3.90
2008,09,23,03,55,3.90
2008,09,23,03,56,3.80
2008,09,23,03,57,3.80
2008,09,23,03,58,3.80
2008,09,23,03,59,3.80
2008,09,23,04,00,3.80
2008,09,23,04,01,3.80
2008,09,23,04,02,3.80
2008,09,23,04,03,3.80
2008,09,23,04,04,3.80
2008,09,23,04,05,3.80
2008,09,23,04,06,3.80
2008,09,23,04,07,3.80
2008,09,23,04,08,3.80
2008,09,23,04,09,3.80
2008,09,23,04,10,3.80
2008,09,23,04,11,3.70
2008,09,23,04,12,3.70
2008,09,23,04,13,3.70
2008,09,23,04,14,3.70
2008,09,23,04,15,3.70
2008,09,23,04,16,3.60
2008,09,23,04,17,3.60
2008,09,23,04,18,3.60
2008,09,23,04,19,3.60
2008,09,23,04,20,3.60
2008,09,23,04,21,3.60
2008,09,23,04,22,3.50
2008,09,23,04,23,3.50
2008,09,23,04,24,3.50
2008,09,23,04,25,3.50
2008,09,23,04,26,3.40
2008,09,23,04,27,3.40
2008,09,23,04,28,3.40
2008,09,23,04,29,3.40
2008,09,23,04,30,3.30
2008,09,23,04,31,3.30
2008,09,23,04,32,3.30
2008,09,23,04,33,3.30
2008,09,23,04,34,3.40
2008,09,23,04,35,3.40
2008,09,23,04,36,3.40
2008,09,23,04,37,3.40
2008,09,23,04,38,3.40
2008,09,23,04,39,3.40
2008,09,23,04,40,3.40
2008,09,23,04,41,3.40
2008,09,23,04,42,3.40
2008,09,23,04,43,3.40
2008,09,23,04,44,3.40
2008,09,23,04,45,3.40
2008,09,23,04,46,3.40
2008,09,23,04,47,3.40
2008,09,23,04,48,3.40
2008,09,23,04,49,3.30
2008,09,23,04,50,3.30
2008,09,23,04,51,3.30
2008,09,23,04,52,3.30
2008,09,23,04,53,3.30
2008,09,23,04,54,3.30
2008,09,23,04,55,3.30
2008,09,23,04,56,3.30
2008,09,23,04,57,3.30
2008,09,23,04,58,3.30
2008,09,23,04,59,3.30
2008,09,23,05,00,3.30
2008,09,23,05,01,3.30
2008,09,23,05,02,3.30
2008,09,23,05,03,3.30
2008,09,23,05,04,3.30
2008,09,23,05,05,3.30
2008,09,23,05,06,3.30
2008,09,23,05,07,3.30
2008,09,23,05,08,3.20
2008,09,23,05,09,3.20
2008,09,23,05,10,3.20
2008,09,23,05,11,3.20
2008,09,23,05,12,3.20
2008,09,23,05,13,3.20
2008,09,23,05,14,3.10
2008,09,23,05,15,3.10
2008,09,23,05,16,3.10
2008,09,23,05,17,3.10
2008,09,23,05,18,3.10
2008,09,23,05,19,3.10
2008,09,23,05,20,3.10
2008,09,23,05,21,3.10
2008,09,23,05,22,3.10
2008,09,23,05,23,3.10
2008,09,23,05,24,3.10
2008,09,23,05,25,3.10
2008,09,23,05,26,3.10
2008,09,23,05,27,3.10
2008,09,23,05,28,3.10
2008,09,23,05,29,3.20
2008,09,23,05,30,3.20
2008,09,23,05,31,3.20
2008,09,23,05,32,3.30
2008,09,23,05,33,3.30
2008,09,23,05,34,3.30
2008,09,23,05,35,3.30
2008,09,23,05,36,3.30
2008,09,23,05,37,3.30
2008,09,23,05,38,3.30
2008,09,23,05,39,3.30
2008,09,23,05,40,3.30
2008,09,23,05,41,3.30
2008,09,23,05,42,3.30
2008,09,23,05,43,3.30
2008,09,23,05,44,3.30
2008,09,23,05,45,3.20
2008,09,23,05,46,3.20
2008,09,23,05,47,3.20
2008,09,23,05,48,3.10
2008,09,23,05,49,3.10
2008,09,23,05,50,3.10
2008,09,23,05,51,3.10
2008,09,23,05,52,2.90
2008,09,23,05,53,2.90
2008,09,23,05,54,2.90
2008,09,23,05,55,2.90
2008,09,23,05,56,2.90
2008,09,23,05,57,2.90
2008,09,23,05,58,2.90
2008,09,23,05,59,2.90
2008,09,23,06,00,2.90
2008,09,23,06,01,2.90
2008,09,23,06,02,2.90
2008,09,23,06,03,2.90
2008,09,23,06,04,2.90
2008,09,23,06,05,2.90
2008,09,23,06,06,2.90
2008,09,23,06,07,2.90
2008,09,23,06,08,2.80
2008,09,23,06,09,2.80
2008,09,23,06,10,2.80
2008,09,23,06,11,2.70
2008,09,23,06,12,2.70
2008,09,23,06,13,2.70
2008,09,23,06,14,2.70
2008,09,23,06,15,2.70
2008,09,23,06,16,2.70
2008,09,23,06,17,2.70
2008,09,23,06,18,2.70
2008,09,23,06,19,2.60
2008,09,23,06,20,2.60
2008,09,23,06,21,2.60
2008,09,23,06,22,2.60
2008,09,23,06,23,2.50
2008,09,23,06,24,2.50
2008,09,23,06,25,2.50
2008,09,23,06,26,2.50
2008,09,23,06,27,2.50
2008,09,23,06,28,2.40
2008,09,23,06,29,2.40
2008,09,23,06,30,2.40
2008,09,23,06,31,2.40
2008,09,23,06,32,2.40
2008,09,23,06,33,2.40
2008,09,23,06,34,2.40
2008,09,23,06,35,2.40
2008,09,23,06,36,2.40
2008,09,23,06,37,2.40
2008,09,23,06,38,2.40
2008,09,23,06,39,2.40
2008,09,23,06,40,2.40
2008,09,23,06,41,2.40
2008,09,23,06,42,2.40
2008,09,23,06,43,2.40
2008,09,23,06,44,2.40
2008,09,23,06,45,2.40
2008,09,23,06,46,2.40
2008,09,23,06,47,2.40
2008,09,23,06,48,2.40
2008,09,23,06,49,2.40
2008,09,23,06,50,2.40
2008,09,23,06,51,2.40
2008,09,23,06,52,2.50
2008,09,23,06,53,2.50
2008,09,23,06,54,2.50
2008,09,23,06,55,2.60
2008,09,23,06,56,2.60
2008,09,23,06,57,2.60
2008,09,23,06,58,2.60
2008,09,23,06,59,2.60
2008,09,23,07,00,2.60
2008,09,23,07,01,2.60
2008,09,23,07,02,2.60
2008,09,23,07,03,2.50
2008,09,23,07,04,2.50
2008,09,23,07,05,2.50
2008,09,23,07,06,2.50
2008,09,23,07,07,2.50
2008,09,23,07,08,2.50
2008,09,23,07,09,2.50
2008,09,23,07,10,2.50
2008,09,23,07,11,2.50
2008,09,23,07,12,2.50
2008,09,23,07,13,2.50
2008,09,23,07,14,2.50
2008,09,23,07,15,2.50
2008,09,23,07,16,2.50
2008,09,23,07,17,2.60
2008,09,23,07,18,2.60
2008,09,23,07,19,2.60
2008,09,23,07,20,2.60
2008,09,23,07,21,2.70
2008,09,23,07,22,2.70
2008,09,23,07,23,2.70
2008,09,23,07,24,2.70
2008,09,23,07,25,2.70
2008,09,23,07,26,2.70
2008,09,23,07,27,2.70
2008,09,23,07,28,2.70
2008,09,23,07,29,2.70
2008,09,23,07,30,2.70
2008,09,23,07,31,2.70
2008,09,23,07,32,2.80
2008,09,23,07,33,2.80
2008,09,23,07,34,2.80
2008,09,23,07,35,2.90
2008,09,23,07,36,2.90
2008,09,23,07,37,2.90
2008,09,23,07,38,3.10
2008,09,23,07,39,3.10
2008,09,23,07,40,3.10
2008,09,23,07,41,3.20
2008,09,23,07,42,3.20
2008,09,23,07,43,3.30
2008,09,23,07,44,3.40
2008,09,23,07,45,3.50
2008,09,23,07,46,3.60
2008,09,23,07,47,3.60
2008,09,23,07,48,3.70
2008,09,23,07,49,3.70
2008,09,23,07,50,3.80
2008,09,23,07,51,3.80
2008,09,23,07,52,3.80
2008,09,23,07,53,3.80
2008,09,23,07,54,3.80
2008,09,23,07,55,3.80
2008,09,23,07,56,3.80
2008,09,23,07,57,3.80
2008,09,23,07,58,3.80
2008,09,23,07,59,3.80
2008,09,23,08,00,3.80
2008,09,23,08,01,3.80
2008,09,23,08,02,3.90
2008,09,23,08,03,3.90
2008,09,23,08,04,3.90
2008,09,23,08,05,3.90
2008,09,23,08,06,3.90
2008,09,23,08,07,3.90
2008,09,23,08,08,4.00
2008,09,23,08,09,4.00
2008,09,23,08,10,4.00
2008,09,23,08,11,4.00
2008,09,23,08,12,4.00
2008,09,23,08,13,4.10
2008,09,23,08,14,4.10
2008,09,23,08,15,4.10
2008,09,23,08,16,4.20
2008,09,23,08,17,4.20
2008,09,23,08,18,4.20
2008,09,23,08,19,4.20
2008,09,23,08,20,4.20
2008,09,23,08,21,4.30
2008,09,23,08,22,4.30
2008,09,23,08,23,4.40
2008,09,23,08,24,4.40
2008,09,23,08,25,4.40
2008,09,23,08,26,4.50
2008,09,23,08,27,4.50
2008,09,23,08,28,4.50
2008,09,23,08,29,4.60
2008,09,23,08,30,4.60
2008,09,23,08,31,4.70
2008,09,23,08,32,4.70
2008,09,23,08,33,4.80
2008,09,23,08,34,4.90
2008,09,23,08,35,4.90
2008,09,23,08,36,5.10
2008,09,23,08,37,5.10
2008,09,23,08,38,5.20
2008,09,23,08,39,5.30
2008,09,23,08,40,5.40
2008,09,23,08,41,5.50
2008,09,23,08,42,5.60
2008,09,23,08,43,5.70
2008,09,23,08,44,5.90
2008,09,23,08,45,6.00
2008,09,23,08,46,6.20
2008,09,23,08,47,6.40
2008,09,23,08,48,6.50
2008,09,23,08,49,6.60
2008,09,23,08,50,6.70
2008,09,23,08,51,6.80
2008,09,23,08,52,7.10
2008,09,23,08,53,7.30
2008,09,23,08,54,7.50
2008,09,23,08,55,7.70
2008,09,23,08,56,7.90
2008,09,23,08,57,8.10
2008,09,23,08,58,8.20
2008,09,23,08,59,8.40
2008,09,23,09,00,8.50
2008,09,23,09,01,8.70
2008,09,23,09,02,8.80
2008,09,23,09,03,8.90
2008,09,23,09,04,8.90
2008,09,23,09,05,9.00
2008,09,23,09,06,9.10
2008,09,23,09,07,9.20
2008,09,23,09,08,9.20
2008,09,23,09,09,9.20
2008,09,23,09,10,9.20
2008,09,23,09,11,9.30
2008,09,23,09,12,9.30
2008,09,23,09,13,9.40
2008,09,23,09,14,9.50
2008,09,23,09,15,9.50
2008,09,23,09,16,9.60
2008,09,23,09,17,9.60
2008,09,23,09,18,9.60
2008,09,23,09,19,9.70
2008,09,23,09,20,9.70
2008,09,23,09,21,9.80
2008,09,23,09,22,9.90
2008,09,23,09,23,9.90
2008,09,23,09,24,10.00
2008,09,23,09,25,10.10
2008,09,23,09,26,10.10
2008,09,23,09,27,10.10
2008,09,23,09,28,10.20
2008,09,23,09,29,10.30
2008,09,23,09,30,10.30
2008,09,23,09,31,10.30
2008,09,23,09,32,10.30
2008,09,23,09,33,10.30
2008,09,23,09,34,10.40
2008,09,23,09,35,10.40
2008,09,23,09,36,10.40
2008,09,23,09,37,10.40
2008,09,23,09,38,10.40
2008,09,23,09,39,10.40
2008,09,23,09,40,10.50
2008,09,23,09,41,10.60
2008,09,23,09,42,10.60
2008,09,23,09,43,10.70
2008,09,23,09,44,10.80
2008,09,23,09,45,10.90
2008,09,23,09,46,10.90
2008,09,23,09,47,11.10
2008,09,23,09,48,11.10
2008,09,23,09,49,11.20
2008,09,23,09,50,11.20
2008,09,23,09,51,11.30
2008,09,23,09,52,11.30
2008,09,23,09,53,11.30
2008,09,23,09,54,11.30
2008,09,23,09,55,11.30
2008,09,23,09,56,11.30
2008,09,23,09,57,11.40
2008,09,23,09,58,11.40
2008,09,23,09,59,11.40
2008,09,23,10,00,11.50
2008,09,23,10,01,11.50
2008,09,23,10,02,11.50
2008,09,23,10,03,11.60
2008,09,23,10,04,11.60
2008,09,23,10,05,11.70
2008,09,23,10,06,11.80
2008,09,23,10,07,11.90
2008,09,23,10,08,11.90
2008,09,23,10,09,11.80
2008,09,23,10,10,11.80
2008,09,23,10,11,11.80
2008,09,23,10,12,11.80
2008,09,23,10,13,11.70
2008,09,23,10,14,11.70
2008,09,23,10,15,11.80
2008,09,23,10,16,11.80
2008,09,23,10,17,11.80
2008,09,23,10,18,11.80
2008,09,23,10,19,11.90
2008,09,23,10,20,11.90
2008,09,23,10,21,11.90
2008,09,23,10,22,11.90
2008,09,23,10,23,11.80
2008,09,23,10,24,11.90
2008,09,23,10,25,11.90
2008,09,23,10,26,11.80
2008,09,23,10,27,11.80
2008,09,23,10,28,11.80
2008,09,23,10,29,11.80
2008,09,23,10,30,11.80
2008,09,23,10,31,11.80
2008,09,23,10,32,11.80
2008,09,23,10,33,11.80
2008,09,23,10,34,11.80
2008,09,23,10,35,11.80
2008,09,23,10,36,12.00
2008,09,23,10,37,12.00
2008,09,23,10,38,12.00
2008,09,23,10,39,12.00
2008,09,23,10,40,12.00
2008,09,23,10,41,12.10
2008,09,23,10,42,12.10
2008,09,23,10,43,12.20
2008,09,23,10,44,12.30
2008,09,23,10,45,12.20
2008,09,23,10,46,12.20
2008,09,23,10,47,12.10
2008,09,23,10,48,12.10
2008,09,23,10,49,12.10
2008,09,23,10,50,12.10
2008,09,23,10,51,12.10
2008,09,23,10,52,12.10
2008,09,23,10,53,12.10
2008,09,23,10,54,12.10
2008,09,23,10,55,12.10
2008,09,23,10,56,12.10
2008,09,23,10,57,12.10
2008,09,23,10,58,12.20
2008,09,23,10,59,12.20
2008,09,23,11,00,12.30
2008,09,23,11,01,12.30
2008,09,23,11,02,12.30
2008,09,23,11,03,12.20
2008,09,23,11,04,12.10
2008,09,23,11,05,12.10
2008,09,23,11,06,12.20
2008,09,23,11,07,12.30
2008,09,23,11,08,12.30
2008,09,23,11,09,12.40
2008,09,23,11,10,12.50
2008,09,23,11,11,12.60
2008,09,23,11,12,12.50
2008,09,23,11,13,12.40
2008,09,23,11,14,12.40
2008,09,23,11,15,12.40
2008,09,23,11,16,12.30
2008,09,23,11,17,12.40
2008,09,23,11,18,12.40
2008,09,23,11,19,12.40
2008,09,23,11,20,12.40
2008,09,23,11,21,12.40
2008,09,23,11,22,12.50
2008,09,23,11,23,12.50
2008,09,23,11,24,12.50
2008,09,23,11,25,12.60
2008,09,23,11,26,12.60
2008,09,23,11,27,12.70
2008,09,23,11,28,12.70
2008,09,23,11,29,12.70
2008,09,23,11,30,12.60
2008,09,23,11,31,12.50
2008,09,23,11,32,12.40
2008,09,23,11,33,12.40
2008,09,23,11,34,12.50
2008,09,23,11,35,12.60
2008,09,23,11,36,12.80
2008,09,23,11,37,13.00
2008,09,23,11,38,13.10
2008,09,23,11,39,13.20
2008,09,23,11,40,13.10
2008,09,23,11,41,13.10
2008,09,23,11,42,13.10
2008,09,23,11,43,13.10
2008,09,23,11,44,13.20
2008,09,23,11,45,13.20
2008,09,23,11,46,13.20
2008,09,23,11,47,13.30
2008,09,23,11,48,13.40
2008,09,23,11,49,13.40
2008,09,23,11,50,13.40
2008,09,23,11,51,13.40
2008,09,23,11,52,13.30
2008,09,23,11,53,13.10
2008,09,23,11,54,13.00
2008,09,23,11,55,13.00
2008,09,23,11,56,12.90
2008,09,23,11,57,12.90
2008,09,23,11,58,12.90
2008,09,23,11,59,12.90
2008,09,23,12,00,12.90
2008,09,23,12,01,13.00
2008,09,23,12,02,13.00
2008,09,23,12,03,12.90
2008,09,23,12,04,12.90
2008,09,23,12,05,13.00
2008,09,23,12,06,13.00
2008,09,23,12,07,13.10
2008,09,23,12,08,13.20
2008,09,23,12,09,13.30
2008,09,23,12,10,13.30
2008,09,23,12,11,13.30
2008,09,23,12,12,13.10
2008,09,23,12,13,13.00
2008,09,23,12,14,13.00
2008,09,23,12,15,12.90
2008,09,23,12,16,12.80
2008,09,23,12,17,12.80
2008,09,23,12,18,12.80
2008,09,23,12,19,12.80
2008,09,23,12,20,12.80
2008,09,23,12,21,12.80
2008,09,23,12,22,12.80
2008,09,23,12,23,12.80
2008,09,23,12,24,12.70
2008,09,23,12,25,12.60
2008,09,23,12,26,12.70
2008,09,23,12,27,12.80
2008,09,23,12,28,12.90
2008,09,23,12,29,12.90
2008,09,23,12,30,12.90
2008,09,23,12,31,12.90
2008,09,23,12,32,12.90
2008,09,23,12,33,13.00
2008,09,23,12,34,13.10
2008,09,23,12,35,13.30
2008,09,23,12,36,13.30
2008,09,23,12,37,13.30
2008,09,23,12,38,13.30
2008,09,23,12,39,13.30
2008,09,23,12,40,13.40
2008,09,23,12,41,13.30
2008,09,23,12,42,13.20
2008,09,23,12,43,13.20
2008,09,23,12,44,13.20
2008,09,23,12,45,13.20
2008,09,23,12,46,13.30
2008,09,23,12,47,13.30
2008,09,23,12,48,13.30
2008,09,23,12,49,13.30
2008,09,23,12,50,13.30
2008,09,23,12,51,13.30
2008,09,23,12,52,13.30
2008,09,23,12,53,13.30
2008,09,23,12,54,13.40
2008,09,23,12,55,13.40
2008,09,23,12,56,13.40
2008,09,23,12,57,13.40
2008,09,23,12,58,13.40
2008,09,23,12,59,13.40
2008,09,23,13,00,13.40
2008,09,23,13,01,13.40
2008,09,23,13,02,13.50
2008,09,23,13,03,13.40
2008,09,23,13,04,13.40
2008,09,23,13,05,13.40
2008,09,23,13,06,13.40
2008,09,23,13,07,13.50
2008,09,23,13,08,13.50
2008,09,23,13,09,13.50
2008,09,23,13,10,13.60
2008,09,23,13,11,13.50
2008,09,23,13,12,13.40
2008,09,23,13,13,13.30
2008,09,23,13,14,13.40
2008,09,23,13,15,13.50
2008,09,23,13,16,13.60
2008,09,23,13,17,13.70
2008,09,23,13,18,13.70
2008,09,23,13,19,13.80
2008,09,23,13,20,13.80
2008,09,23,13,21,13.90
2008,09,23,13,22,13.90
2008,09,23,13,23,13.80
2008,09,23,13,24,13.90
2008,09,23,13,25,14.00
2008,09,23,13,26,14.00
2008,09,23,13,27,14.00
2008,09,23,13,28,14.00
2008,09,23,13,29,14.10
2008,09,23,13,30,14.20
2008,09,23,13,31,14.20
2008,09,23,13,32,14.10
2008,09,23,13,33,14.10
2008,09,23,13,34,14.00
2008,09,23,13,35,13.90
2008,09,23,13,36,13.90
2008,09,23,13,37,13.80
2008,09,23,13,38,13.90
2008,09,23,13,39,14.00
2008,09,23,13,40,14.00
2008,09,23,13,41,13.90
2008,09,23,13,42,13.80
2008,09,23,13,43,13.80
2008,09,23,13,44,13.90
2008,09,23,13,45,13.90
2008,09,23,13,46,13.80
2008,09,23,13,47,13.80
2008,09,23,13,48,13.80
2008,09,23,13,49,13.90
2008,09,23,13,50,13.90
2008,09,23,13,51,13.80
2008,09,23,13,52,13.90
2008,09,23,13,53,13.90
2008,09,23,13,54,14.00
2008,09,23,13,55,14.00
2008,09,23,13,56,14.00
2008,09,23,13,57,14.00
2008,09,23,13,58,14.00
2008,09,23,13,59,14.00
2008,09,23,14,00,14.00
2008,09,23,14,01,14.00
2008,09,23,14,02,14.10
2008,09,23,14,03,14.10
2008,09,23,14,04,14.00
2008,09,23,14,05,14.00
2008,09,23,14,06,14.10
2008,09,23,14,07,14.10
2008,09,23,14,08,14.20
2008,09,23,14,09,14.20
2008,09,23,14,10,14.30
2008,09,23,14,11,14.30
2008,09,23,14,12,14.20
2008,09,23,14,13,14.20
2008,09,23,14,14,14.20
2008,09,23,14,15,14.30
2008,09,23,14,16,14.30
2008,09,23,14,17,14.20
2008,09,23,14,18,14.30
2008,09,23,14,19,14.30
2008,09,23,14,20,14.30
2008,09,23,14,21,14.20
2008,09,23,14,22,14.30
2008,09,23,14,23,14.30
2008,09,23,14,24,14.40
2008,09,23,14,25,14.50
2008,09,23,14,26,14.50
2008,09,23,14,27,14.50
2008,09,23,14,28,14.50
2008,09,23,14,29,14.50
2008,09,23,14,30,14.50
2008,09,23,14,31,14.50
2008,09,23,14,32,14.60
2008,09,23,14,33,14.60
2008,09,23,14,34,14.70
2008,09,23,14,35,14.70
2008,09,23,14,36,14.70
2008,09,23,14,37,14.60
2008,09,23,14,38,14.60
2008,09,23,14,39,14.60
2008,09,23,14,40,14.60
2008,09,23,14,41,14.70
2008,09,23,14,42,14.70
2008,09,23,14,43,14.60
2008,09,23,14,44,14.70
2008,09,23,14,45,14.70
2008,09,23,14,46,14.60
2008,09,23,14,47,14.50
2008,09,23,14,48,14.50
2008,09,23,14,49,14.40
2008,09,23,14,50,14.50
2008,09,23,14,51,14.40
2008,09,23,14,52,14.40
2008,09,23,14,53,14.40
2008,09,23,14,54,14.40
2008,09,23,14,55,14.40
2008,09,23,14,56,14.40
2008,09,23,14,57,14.40
2008,09,23,14,58,14.40
2008,09,23,14,59,14.40
2008,09,23,15,00,14.50
2008,09,23,15,01,14.50
2008,09,23,15,02,14.50
2008,09,23,15,03,14.40
2008,09,23,15,04,14.30
2008,09,23,15,05,14.20
2008,09,23,15,06,14.20
2008,09,23,15,07,14.20
2008,09,23,15,08,14.30
2008,09,23,15,09,14.30
2008,09,23,15,10,14.30
2008,09,23,15,11,14.30
2008,09,23,15,12,14.20
2008,09,23,15,13,14.20
2008,09,23,15,14,14.30
2008,09,23,15,15,14.30
2008,09,23,15,16,14.30
2008,09,23,15,17,14.30
2008,09,23,15,18,14.30
2008,09,23,15,19,14.30
2008,09,23,15,20,14.30
2008,09,23,15,21,14.20
2008,09,23,15,22,14.20
2008,09,23,15,23,14.20
2008,09,23,15,24,14.20
2008,09,23,15,25,14.20
2008,09,23,15,26,14.20
2008,09,23,15,27,14.20
2008,09,23,15,28,14.20
2008,09,23,15,29,14.20
2008,09,23,15,30,14.10
2008,09,23,15,31,14.10
2008,09,23,15,32,14.10
2008,09,23,15,33,14.00
2008,09,23,15,34,14.00
2008,09,23,15,35,14.00
2008,09,23,15,36,14.00
2008,09,23,15,37,14.00
2008,09,23,15,38,14.00
2008,09,23,15,39,14.00
2008,09,23,15,40,13.90
2008,09,23,15,41,13.90
2008,09,23,15,42,14.00
2008,09,23,15,43,14.00
2008,09,23,15,44,14.00
2008,09,23,15,45,14.00
2008,09,23,15,46,14.00
2008,09,23,15,47,14.00
2008,09,23,15,48,14.10
2008,09,23,15,49,14.10
2008,09,23,15,50,14.10
2008,09,23,15,51,14.10
2008,09,23,15,52,14.10
2008,09,23,15,53,14.20
2008,09,23,15,54,14.20
2008,09,23,15,55,14.20
2008,09,23,15,56,14.20
2008,09,23,15,57,14.20
2008,09,23,15,58,14.20
2008,09,23,15,59,14.20
2008,09,23,16,00,14.10
2008,09,23,16,01,14.20
2008,09,23,16,02,14.20
2008,09,23,16,03,14.20
2008,09,23,16,04,14.20
2008,09,23,16,05,14.20
2008,09,23,16,06,14.20
2008,09,23,16,07,14.20
2008,09,23,16,08,14.20
2008,09,23,16,09,14.20
2008,09,23,16,10,14.20
2008,09,23,16,11,14.20
2008,09,23,16,12,14.20
2008,09,23,16,13,14.20
2008,09,23,16,14,14.20
2008,09,23,16,15,14.20
2008,09,23,16,16,14.20
2008,09,23,16,17,14.20
2008,09,23,16,18,14.20
2008,09,23,16,19,14.20
2008,09,23,16,20,14.20
2008,09,23,16,21,14.20
2008,09,23,16,22,14.10
2008,09,23,16,23,14.10
2008,09,23,16,24,14.10
2008,09,23,16,25,14.10
2008,09,23,16,26,14.20
2008,09,23,16,27,14.20
2008,09,23,16,28,14.20
2008,09,23,16,29,14.20
2008,09,23,16,30,14.20
2008,09,23,16,31,14.20
2008,09,23,16,32,14.20
2008,09,23,16,33,14.20
2008,09,23,16,34,14.20
2008,09,23,16,35,14.30
2008,09,23,16,36,14.30
2008,09,23,16,37,14.30
2008,09,23,16,38,14.30
2008,09,23,16,39,14.40
2008,09,23,16,40,14.40
2008,09,23,16,41,14.50
2008,09,23,16,42,14.40
2008,09,23,16,43,14.40
2008,09,23,16,44,14.40
2008,09,23,16,45,14.40
2008,09,23,16,46,14.40
2008,09,23,16,47,14.50
2008,09,23,16,48,14.50
2008,09,23,16,49,14.50
2008,09,23,16,50,14.60
2008,09,23,16,51,14.60
2008,09,23,16,52,14.60
2008,09,23,16,53,14.60
2008,09,23,16,54,14.70
2008,09,23,16,55,14.60
2008,09,23,16,56,14.60
2008,09,23,16,57,14.60
2008,09,23,16,58,14.50
2008,09,23,16,59,14.50
2008,09,23,17,00,14.50
2008,09,23,17,01,14.50
2008,09,23,17,02,14.60
2008,09,23,17,03,14.60
2008,09,23,17,04,14.60
2008,09,23,17,05,14.60
2008,09,23,17,06,14.60
2008,09,23,17,07,14.60
2008,09,23,17,08,14.60
2008,09,23,17,09,14.60
2008,09,23,17,10,14.60
2008,09,23,17,11,14.60
2008,09,23,17,12,14.60
2008,09,23,17,13,14.50
2008,09,23,17,14,14.50
2008,09,23,17,15,14.60
2008,09,23,17,16,14.60
2008,09,23,17,17,14.60
2008,09,23,17,18,14.50
2008,09,23,17,19,14.50
2008,09,23,17,20,14.50
2008,09,23,17,21,14.50
2008,09,23,17,22,14.50
2008,09,23,17,23,14.50
2008,09,23,17,24,14.50
2008,09,23,17,25,14.50
2008,09,23,17,26,14.50
2008,09,23,17,27,14.50
2008,09,23,17,28,14.40
2008,09,23,17,29,14.40
2008,09,23,17,30,14.50
2008,09,23,17,31,14.50
2008,09,23,17,32,14.40
2008,09,23,17,33,14.40
2008,09,23,17,34,14.40
2008,09,23,17,35,14.40
2008,09,23,17,36,14.30
2008,09,23,17,37,14.30
2008,09,23,17,38,14.30
2008,09,23,17,39,14.20
2008,09,23,17,40,14.20
2008,09,23,17,41,14.20
2008,09,23,17,42,14.20
2008,09,23,17,43,14.20